PEGASUS DEB

Satellite information

Favourite Embed

Satellite Type and Status

DEBRISIN ORBIT

Key statistics

Satellite PEGASUS DEB at a glance.

Uptime

11310

Days in orbit

Revolutions

≈ 14.8

Per day

Orbit

LEO

Low Earth Orbit

Inclination

81.6

Latest

Satellite identification and parameters

Extended collection of information and parameters for PEGASUS DEB.

Object identification

Identified? True

Debris? True

Object name: PEGASUS DEB

International designator: 1994-029ACN

Object number (NORAD): 24980

Object ID (CCSDS): 24980

Country: UNITED STATES OF AMERICA (US)

Current information (Y/N): Y

RCS size: SMALL

Orbital parameters

Period: 97.57 minutes

Inclination: 81.5787 deg

SMA: 7020.533 km

Apoapsis: 773.598 km

Periapsis: 511.198 km

RAAN: 251.1954 deg

Eccentricy: 0.0186881

Argument of periapsis: 217.7296 deg

Mean anomaly: 141.069 deg

Mean motion: 14.75868396 rev/day

Mean motion (dot): 0.00021521 rev/day2

B* drag term: 0.0023468 1/REarth

Two-line elements (TLE)

Creation date: May 6, 2025, 3:54 a.m.

Reference frame: TEME

Reference center: EARTH

Epoch: May 5, 2025, 1:18 a.m. UTC

TLE line 0: 0 PEGASUS DEB

TLE line 1: 1 24980U 94029ACN 25125.05418234 .00021521 00000-0 23468-2 0 9995

TLE line 2: 2 24980 81.5787 251.1954 0186881 217.7296 141.0690 14.75868396487607

Live tracking on map

Real-time ground track for satellite PEGASUS DEB.

In-orbit conjunctions

A list of the most updated potential collisions computed for object PEGASUS DEB.

Target Orbit TCA Probability of collision Miss distance Type
OSCAR 18 (WEBERSAT) SSO 2025-04-12 13:18:30 0.0001914167 106.0 (m) PAYLOAD
CZ-6A DEB LEO 2025-02-22 14:34:08 0.002806669 333.0 (m) DEBRIS
CZ-6A DEB LEO 2024-10-10 00:42:40 0.0001379168 351.0 (m) DEBRIS

Associated space launch

PEGASUS DEB was lifted into orbit during the mission ‘Pegasus HAPS | Space Test Experiments Platform 2 (STEP-2)’, on board a Pegasus HAPS space rocket.

The launch took place on May 19, 1994, 5:03 p.m. from Edwards Air Force Base.

For more information about the launch, click the button.

Launch to space Pegasus HAPS | Space Test Experiments Platform 2 (STEP-2)
Pegasus HAPS | Space Test Experiments Platform 2 (STEP-2)

Agency: N/A

Status: Launch Successful

Launch date: May 19, 1994, 5:03 p.m. UTC

Rocket: Pegasus HAPS

Launch pad: Edwards Air Force Base

Location: Air launch to orbit

...

Latest news about this satellite

There are no fresh news available about this satellite. Check back as we update our databases every day.


Newsletter sign-up

Weekly statistics, charts and insights to help you stay on top of the space industry.